Date String (YYYY-MM-DD hh:mm:ss) UTC,Instrument flags,absolute air pressure of the measurement (hPa),sample flow rate (lpm),inlet stack bypass flow (lpm),air temperature of the measurement (°C),ambient temperature measured by the external sensor (°C),aerosol sample conditioner tube jacket temperature (°C),OPC LED temperature (°C),internal box temperature (°C),relative humidity of the measurement (%),span deviation,mass concentration of particles derived from Lorenz-Mie calculation of OPC scattering (μg/m³),mass concentration of particles derived from Lorenz-Mie calculation of OPC scattering (μg/m³),mass concentration of particles derived from Lorenz-Mie calculation of OPC scattering (μg/m³)
DateTimeUTC,F1_M11,P_M11,Q1_M11,Q2_M11,T1_M11,T2_M11,T3_M11,T4_M11,T5_M11,U1_M11,ZSPAN_M11,X0_M11,X2_M11,X1_M11
2024-01-24 01:00:00,SystemResetWarning,0825.4,5.00,000.00,026.4,025.6,000.0,034.8,027.8,14.4,0002.6,0015.45,0008.84,0008.21
2024-01-24 01:01:00,SystemResetWarning,0825.4,5.00,000.00,026.4,025.6,000.0,034.8,027.8,14.4,0002.8,0016.02,0008.82,0008.22
2024-01-24 01:02:00,SystemResetWarning,0825.4,5.00,000.00,026.4,025.6,000.0,034.8,027.8,14.4,0003.0,0016.10,0008.84,0008.23
2024-01-24 01:03:00,SystemResetWarning,0825.4,5.00,000.00,026.4,025.6,000.0,034.8,027.8,14.4,0003.1,0015.96,0008.89,0008.25
2024-01-24 01:04:00,SystemResetWarning,0825.4,5.00,000.00,026.4,025.6,000.0,034.8,027.8,14.3,0003.2,0015.17,0008.91,0008.27
2024-01-24 01:05:00,SystemResetWarning,0825.4,5.00,000.00,026.4,025.6,000.0,034.8,027.8,14.3,0003.2,0016.20,0008.96,0008.30
2024-01-24 01:06:00,SystemResetWarning,0825.4,5.00,000.00,026.4,025.6,000.0,034.8,027.8,14.3,0002.9,0016.81,0009.04,0008.34
2024-01-24 01:07:00,SystemResetWarning,0825.4,5.00,000.00,026.4,025.6,000.0,034.8,027.8,14.4,0002.6,0017.52,0009.16,0008.41
2024-01-24 01:08:00,SystemResetWarning,0825.4,5.00,000.00,026.4,025.6,000.0,034.8,027.8,14.4,0002.5,0018.09,0009.33,0008.48
2024-01-24 01:09:00,SystemResetWarning,0825.4,5.00,000.00,026.4,025.6,000.0,034.8,027.8,14.4,0002.1,0019.00,0009.47,0008.52
2024-01-24 01:10:00,SystemResetWarning,0825.4,5.00,000.00,026.4,025.6,000.0,034.8,027.8,14.4,0001.9,0020.92,0009.66,0008.58
2024-01-24 01:11:00,SystemResetWarning,0825.4,5.00,000.00,026.4,025.6,000.0,034.8,027.8,14.3,0001.9,0022.19,0009.83,0008.65
2024-01-24 01:12:00,SystemResetWarning,0825.4,5.01,000.00,026.4,025.6,000.0,034.8,027.8,14.3,0001.9,0022.97,0009.97,0008.71
2024-01-24 01:13:00,SystemResetWarning,0825.4,4.99,000.00,026.4,025.5,000.0,034.8,027.8,14.2,0002.0,0023.50,0010.03,0008.75
2024-01-24 01:14:00,SystemResetWarning,0825.4,5.00,000.00,026.4,025.5,000.0,034.8,027.8,14.2,0001.9,0023.55,0010.09,0008.80
2024-01-24 01:15:00,SystemResetWarning,0825.4,5.00,000.00,026.4,025.5,000.0,034.8,027.8,14.2,0001.4,0024.93,0010.16,0008.84
2024-01-24 01:16:00,SystemResetWarning,0825.5,5.00,000.00,026.4,025.5,000.0,034.8,027.8,14.2,0001.6,0024.74,0010.26,0008.87
2024-01-24 01:17:00,SystemResetWarning,0825.5,5.00,000.00,026.4,025.5,000.0,034.8,027.8,14.1,0001.5,0027.66,0010.42,0008.90
2024-01-24 01:18:00,SystemResetWarning,0825.5,5.00,000.00,026.4,025.5,000.0,034.8,027.8,14.1,0001.6,0030.52,0010.60,0008.87
2024-01-24 01:19:00,SystemResetWarning,0825.5,5.00,000.00,026.4,025.5,000.0,034.8,027.8,14.1,0001.5,0034.26,0010.71,0008.81
2024-01-24 01:20:00,SystemResetWarning,0825.6,5.00,000.00,026.4,025.5,000.0,034.8,027.8,14.1,0001.7,0037.18,0010.88,0008.78
2024-01-24 01:21:00,SystemResetWarning,0825.5,4.99,000.00,026.4,025.5,000.0,034.8,027.8,14.1,0001.9,0038.00,0010.95,0008.77
2024-01-24 01:22:00,SystemResetWarning,0825.6,5.00,000.00,026.4,025.5,000.0,034.8,027.8,14.1,0002.0,0038.34,0010.95,0008.75
2024-01-24 01:23:00,SystemResetWarning,0825.6,5.00,000.00,026.4,025.5,000.0,034.7,027.8,14.1,0002.2,0038.01,0010.96,0008.76
2024-01-24 01:24:00,SystemResetWarning,0825.6,5.01,000.00,026.4,025.5,000.0,034.7,027.8,14.1,0002.1,0038.90,0011.07,0008.78
2024-01-24 01:25:00,SystemResetWarning,0825.6,5.00,000.00,026.4,025.5,000.0,034.7,027.8,14.1,0002.4,0039.19,0011.17,0008.77
2024-01-24 01:26:00,SystemResetWarning,0825.6,5.00,000.00,026.4,025.4,000.0,034.7,027.8,14.2,0002.9,0040.27,0011.33,0008.73
2024-01-24 01:27:00,SystemResetWarning,0825.7,5.00,000.00,026.4,025.4,000.0,034.7,027.8,14.1,0002.8,0043.77,0011.51,0008.69
2024-01-24 01:28:00,SystemResetWarning,0825.6,4.99,000.00,026.4,025.4,000.0,034.7,027.8,14.2,0002.8,0043.95,0011.70,0008.66
2024-01-24 01:29:00,SystemResetWarning,0825.7,5.00,000.00,026.4,025.4,000.0,034.7,027.8,14.2,0003.0,0045.95,0011.77,0008.65
2024-01-24 01:30:00,SystemResetWarning,0825.7,4.99,000.00,026.4,025.4,000.0,034.7,027.8,14.1,0003.0,0045.07,0011.79,0008.69
2024-01-24 01:31:00,SystemResetWarning,0825.7,5.00,000.00,026.4,025.4,000.0,034.7,027.8,14.1,0003.0,0044.63,0011.76,0008.73
2024-01-24 01:32:00,SystemResetWarning,0825.7,5.01,000.00,026.4,025.4,000.0,034.7,027.8,14.2,0002.9,0043.33,0011.77,0008.76
2024-01-24 01:33:00,SystemResetWarning,0825.7,5.01,000.00,026.4,025.3,000.0,034.7,027.8,14.2,0003.0,0043.51,0011.76,0008.77
2024-01-24 01:34:00,SystemResetWarning,0825.7,5.01,000.00,026.4,025.3,000.0,034.7,027.7,14.2,0002.8,0044.33,0011.77,0008.78
2024-01-24 01:35:00,SystemResetWarning,0825.7,5.00,000.00,026.4,025.3,000.0,034.7,027.7,14.2,0002.9,0043.75,0011.72,0008.77
2024-01-24 01:36:00,SystemResetWarning,0825.8,5.00,000.00,026.4,025.3,000.0,034.7,027.7,14.2,0003.1,0043.22,0011.68,0008.78
2024-01-24 01:37:00,SystemResetWarning,0825.8,5.00,000.00,026.4,025.3,000.0,034.7,027.7,14.2,0003.1,0042.28,0011.63,0008.82
2024-01-24 01:38:00,SystemResetWarning,0825.8,5.00,000.00,026.4,025.3,000.0,034.7,027.7,14.2,0003.4,0039.86,0011.52,0008.87
2024-01-24 01:39:00,SystemResetWarning,0825.8,5.00,000.00,026.4,025.3,000.0,034.7,027.8,14.2,0003.7,0036.80,0011.33,0008.93
2024-01-24 01:40:00,SystemResetWarning,0825.8,4.99,000.00,026.4,025.3,000.0,034.7,027.7,14.2,0003.6,0032.31,0011.07,0008.98
2024-01-24 01:41:00,SystemResetWarning,0825.8,5.00,000.00,026.4,025.3,000.0,034.7,027.7,14.3,0003.5,0029.64,0010.90,0009.03
2024-01-24 01:42:00,SystemResetWarning,0825.8,5.01,000.00,026.4,025.3,000.0,034.7,027.7,14.3,0003.4,0027.52,0010.81,0009.05
2024-01-24 01:43:00,SystemResetWarning,0825.8,5.00,000.00,026.4,025.3,000.0,034.7,027.7,14.3,0003.4,0027.85,0010.71,0009.06
2024-01-24 01:44:00,SystemResetWarning,0825.8,5.00,000.00,026.4,025.3,000.0,034.7,027.7,14.3,0003.5,0027.58,0010.75,0009.11
2024-01-24 01:45:00,SystemResetWarning,0825.8,5.00,000.00,026.4,025.3,000.0,034.7,027.7,14.3,0003.3,0027.24,0010.76,0009.12
2024-01-24 01:46:00,SystemResetWarning,0825.9,4.99,000.00,026.4,025.3,000.0,034.7,027.7,14.2,0003.1,0026.66,0010.76,0009.13
2024-01-24 01:47:00,SystemResetWarning,0825.8,5.00,000.00,026.4,025.3,000.0,034.7,027.7,14.2,0002.9,0027.23,0010.81,0009.15
2024-01-24 01:48:00,SystemResetWarning,0825.9,5.00,000.00,026.4,025.3,000.0,034.7,027.7,14.2,0002.7,0027.27,0010.80,0009.15
2024-01-24 01:49:00,SystemResetWarning,0825.9,5.00,000.00,026.4,025.2,000.0,034.7,027.7,14.3,0002.3,0026.08,0010.67,0009.16
2024-01-24 01:50:00,SystemResetWarning,0825.9,5.00,000.00,026.3,025.2,000.0,034.7,027.7,14.3,0002.1,0026.46,0010.58,0009.13
2024-01-24 01:51:00,SystemResetWarning,0825.9,5.00,000.00,026.3,025.2,000.0,034.7,027.7,14.3,0002.0,0026.38,0010.53,0009.12
2024-01-24 01:52:00,SystemResetWarning,0825.9,5.00,000.00,026.3,025.2,000.0,034.7,027.7,14.3,0002.2,0026.27,0010.55,0009.12
2024-01-24 01:53:00,SystemResetWarning,0825.9,5.00,000.00,026.3,025.2,000.0,034.7,027.7,14.3,0002.3,0026.10,0010.49,0009.10
2024-01-24 01:54:00,SystemResetWarning,0825.9,5.00,000.00,026.3,025.2,000.0,034.7,027.7,14.4,0002.0,0025.16,0010.49,0009.09
2024-01-24 01:55:00,SystemResetWarning,0825.9,5.00,000.00,026.3,025.2,000.0,034.7,027.7,14.4,0001.7,0023.60,0010.46,0009.08
2024-01-24 01:56:00,SystemResetWarning,0825.9,5.01,000.00,026.3,025.1,000.0,034.7,027.7,14.4,0001.6,0023.89,0010.41,0009.05
2024-01-24 01:57:00,SystemResetWarning,0825.9,5.00,000.00,026.3,025.1,000.0,034.7,027.6,14.4,0001.8,0024.48,0010.37,0009.04
2024-01-24 01:58:00,SystemResetWarning,0825.9,5.00,000.00,026.3,025.1,000.0,034.6,027.6,14.5,0001.7,0023.76,0010.29,0009.02
2024-01-24 01:59:00,SystemResetWarning,0825.9,5.00,000.00,026.3,025.1,000.0,034.6,027.7,14.6,0001.1,0022.79,0010.20,0009.00
